Tracking 30995 objects as of 7-Jul-2025
HD Live streaming from Space Station
objects crossing your sky now

STARLINK-31307

Track STARLINK-31307 now!
10-day predictions
STARLINK-31307 is classified as:


NORAD ID: 59089
Int'l Code: 2024-041R
Perigee: 488.6 km
Apogee: 491.8 km
Inclination: 43.0 °
Period: 94.3 minutes
Semi major axis: 6861 km
RCS: Unknown
Launch date: February 29, 2024
Source: United States (US)
Launch site: AIR FORCE EASTERN TEST RANGE (AFETR)
Your satellite tracking list
Your tracking list is empty




NASA's NSSDC Master Catalog

Two Line Element Set (TLE):
1 59089U 24041R   25187.51010168 -.00003778  00000-0 -12782-3 0  9997
2 59089  42.9988 260.8212 0002399 276.9863  83.0715 15.27576602 76679
Source of the keplerian elements: AFSPC